Location: Proctor
(47.8934°N, 114.3048°W)
Time: 21:54:24
(UTC+00:00)

Tiros 1 despin weight - Pass Details

Date: 01 July 2024
Orbit: 576 x 620 km, 48.2° (Epoch: 19 July)

Event Time Altitude Azimuth Distance (km) Brightness Sun altitude
Rises 19:09:59 0° 272° (W) 2,882 ? 64.4°
Reaches altitude 10° 19:12:17 10° 273° (W) 1,981 ? 64.5°
Maximum altitude 19:16:51 86° 2° (N) 627 ? 64.7°
Drops below altitude 10° 19:21:27 10° 92° (E) 1,987 ? 64.8°
Sets 19:23:46 0° 93° (E) 2,892 ? 64.9°
